Weather in Vestmannaeyjar

Iceland     63°26′20″N   20°16′19″W
temp.,
°C
wind,
m/s
gust,
m/s
humid.,
%
clouds,
%
prec.,
mm/h
press.,
hPa
HPBL,
m
23 october, sat
sat2300:00+9se7996100 10.5 991257
03:00+9wsw4596100 1.6 991116
06:00+8wsw3390100 1.7 991101
09:00+8sw1285100 0.0 990112
12:00+8sse1283100 0.1 989122
15:00+8ese3381100 0.0 988146
18:00+8e5684100 0.2 988270
21:00+9ese7982100 0.1 987270
24 october, sun
sun2400:00+9ese71086100 0.2 987236
03:00+9ese798499 0.0 985242
06:00+9ene5883100 0.3 984227
09:00+9ene5783100 0.4 983198
12:00+9e6987100 1.4 983356
15:00+8e5787100 0.3 983277
18:00+8nne2290100 3.7 98397
21:00+7nnw4489100 0.9 984193
25 october, mon
mon2500:00+6nw3385100 2.9 985154
03:00+6wnw1180100 0.3 985135
06:00+7nnw557793 0.3 986281
09:00+5nnw10107355 0.0 988504
12:00+6nw788099 0.1 990737
15:00+6w5580100 0.4 990575
18:00+6wnw5584100 0.9 991543
21:00+6wnw337978 0.1 991468
26 october, tue
tue2600:00+6sse3474100 0.2 991606
03:00+6ese10116799 0.0 989968
06:00+6e111572100 0.0 986857
09:00+6e142176100 0.0 983997
12:00+7e192680100 4.8 9761143
15:00+8ese192778100 3.6 9701001
18:00+8se91292100 8.4 972684
21:00+8ssw8117799 3.3 977919
27 october, wed
wed2700:00+8ssw81071100 4.3 9791053
03:00+8ssw686960 0.4 981868
06:00+7s5673100 1.0 982643
09:00+7sse687584 1.7 983714
12:00+8se797391 3.1 983987
15:00+8sse897875 1.8 982782
18:00+8sse81073100 4.1 983855
21:00+8se101378100 1.8 9831141